Location: Ballyduff
(52.2297°N, 7.2608°W)
Time: 20:40:44
(UTC+00:00)

Daily predictions for brighter satellites

Satellite Brightness Start Highest point End
(mag) Time Altitude Azimuth Time Altitude Azimuth Time Altitude Azimuth
Cosmos 2237 4.3 21:30:20 10° SSW 21:36:05 89° SE 21:41:53 10° NNE
Cosmos 1328 3.8 21:32:58 10° S 21:36:55 76° E 21:40:55 10° NNE
USA 245 3.6 21:33:42 10° S 21:37:12 71° WSW 21:41:41 10° NNW
Cosmos 1703 3.5 21:43:45 10° SSW 21:47:38 75° WNW 21:51:32 10° N
Cosmos 1844 4.4 21:45:51 10° NW 21:51:24 50° WSW 21:56:54 10° S
Cosmos 2084 3.7 21:47:08 10° NW 21:51:35 71° SW 21:56:00 10° SE
COSMOS 2428 3.1 21:48:02 10° S 21:53:22 44° ESE 21:58:44 10° NE
ATLAS 2AS CENTAUR R/B 3.3 21:46:48 10° NW 21:54:32 62° NE 22:01:37 10° ESE
Cosmos 2181 Rocket 4.1 21:48:37 10° N 21:55:02 84° E 22:01:17 10° S
Cosmos 2322 3.7 21:50:20 10° SSW 21:56:01 71° ESE 22:01:44 10° NE
Cosmos 1953 Rocket 3.5 21:52:11 10° S 21:56:29 81° E 22:00:51 10° NNE
ATLAS CENTAUR R/B 1.3 21:53:47 10° NW 21:57:28 61° SW 22:00:56 11° SSE
Cosmos 1869 3.9 21:55:02 10° N 21:58:51 44° ENE 22:02:34 11° SSE
BREEZE-M DEB (TANK) 2.4 21:52:46 10° W 21:59:47 64° S 22:02:37 10° E
Cosmos 773 Rocket 4.0 21:55:03 10° SSW 22:00:19 75° ESE 22:05:38 10° NNE
Cosmos 1842 Rocket 3.8 21:58:07 10° N 22:02:26 59° ENE 22:06:34 11° SSE
ERS-1 Rocket 3.1 21:57:24 10° SSE 22:02:26 80° WSW 22:07:32 10° NNW
Cosmos 2237 Rocket 3.4 21:59:53 10° SSE 22:04:20 24° ESE 22:08:49 10° NE
Meteor 1-27 4.3 21:58:45 10° NNW 22:04:31 90° W 22:10:19 10° S
Cosmos 2219 Rocket 2.3 21:59:23 10° SSW 22:04:51 58° ESE 22:10:22 10° NE
Cosmos 1818 3.9 22:00:09 10° SW 22:05:35 76° NW 22:11:05 10° NE
Cosmos 2360 Rocket 2.8 22:02:01 10° SW 22:07:36 62° NW 22:13:16 10° NNE
SPOT 5 3.0 22:02:48 10° SSE 22:07:49 82° WSW 22:12:36 10° NNW
Cosmos 2333 4.2 22:02:14 10° SSW 22:07:54 82° ESE 22:13:39 10° NNE
USA 215 3.6 22:02:31 10° ENE 22:08:41 42° SE 22:14:48 10° SSW
Cosmos 1825 Rocket 4.4 22:07:15 10° SSW 22:11:36 52° WNW 22:16:00 10° N
CZ-4C R/B 4.2 22:09:03 10° NW 22:14:52 35° NNE 22:21:40 10° E
ATLAS 5 CENTAUR R/B 3.9 22:16:30 10° WNW 22:18:06 16° NNW 22:19:33 10° NNE
GEOS 3 Rocket 3.7 22:13:14 10° NE 22:18:39 75° SE 22:24:02 10° SW
Cosmos 2333 Rocket 2.2 22:13:19 10° SSW 22:19:00 76° ESE 22:24:46 10° NNE
Cosmos 1315 Rocket 3.3 22:17:21 10° NNW 22:21:25 61° W 22:25:29 10° S
Cosmos 2056 Rocket 4.3 22:22:18 10° NNW 22:27:31 46° NE 22:32:26 12° SE
NOSS 0 Rocket 4.3 22:23:21 10° S 22:29:08 45° ESE 22:34:59 10° NE
Cosmos 1892 3.4 22:26:25 15° SSE 22:29:13 38° E 22:32:47 10° NNE
Meteor 2-2 Rocket 4.3 22:24:52 10° NNW 22:30:46 88° ENE 22:35:55 13° SSE
CARTOSAT-1 4.5 22:27:13 10° S 22:31:20 43° W 22:35:29 10° NNW
BREEZE-M DEB 4.4 22:27:46 10° W 22:31:30 50° SSW 22:44:21 10° ESE
MTI 4.1 22:29:46 10° NNE 22:32:46 45° E 22:34:54 17° S
Cosmos 2278 Rocket 2.3 22:30:12 10° NNW 22:35:53 76° WSW 22:40:40 15° SSE
ATLAS 5 CENTAUR R/B 2.5 22:31:49 10° WSW 22:36:03 55° NW 22:40:56 10° NE
USA 81 4.5 22:30:57 10° SSW 22:36:11 64° W 22:41:27 10° N
Cosmos 1943 Rocket 3.8 22:33:55 10° NNW 22:38:50 29° NE 22:43:42 10° E
Cosmos 1408 3.6 22:37:57 17° SE 22:40:04 30° E 22:43:14 10° NNE
USA 267 3.3 22:36:41 10° SE 22:43:15 75° SSW 22:49:51 10° WNW
Cosmos 1680 Rocket 4.0 22:39:45 13° S 22:44:11 44° ESE 22:49:15 10° NE
Cosmos 2221 2.9 22:44:04 10° NNW 22:48:24 60° W 22:52:05 14° S
SL-16 R/B 3.6 22:46:35 14° SE 22:49:30 21° E 22:53:38 10° NE
Lacrosse 5 rocket 2.5 22:47:59 10° WNW 22:52:00 44° N 22:55:46 10° E
Terra 2.8 22:53:51 11° SSW 22:58:10 41° W 23:02:42 10° NNW
Cosmos 2184 Rocket 4.1 22:53:53 10° SSW 23:00:08 81° WNW 23:06:30 10° N
In-Cosmos 22 Rocket 4.0 22:56:02 12° S 23:00:59 85° ESE 23:06:22 10° NNE
Cosmos 923 Rocket 4.0 22:56:49 10° SSW 23:02:03 75° ESE 23:07:22 10° NNE
Cosmos 2058 2.9 23:03:48 15° SSW 23:07:13 86° W 23:11:23 10° N
Cosmos 1825 2.4 23:14:44 23° SSE 23:16:53 54° E 23:20:37 10° NNE
Cosmos 1340 4.4 23:15:33 15° ESE 23:17:07 20° E 23:19:53 10° NE
NOSS 3-4 (A) 4.0 23:10:54 10° NW 23:17:41 62° SW 23:23:27 18° SSE
NOSS 3-4 (C) 4.0 23:11:00 10° NW 23:17:48 62° SW 23:23:35 18° SSE
Cosmos 1624 Rocket 4.0 23:12:36 10° NNW 23:17:52 81° WSW 23:21:30 20° SSE
Aureole 2 Rocket 2.0 23:16:41 10° NNW 23:19:31 71° ENE 23:20:49 29° SE
BREEZE-M DEB (TANK) 4.0 23:22:07 10° W 23:25:59 18° SW 23:27:09 15° SSW
Cosmos 2369 Rocket 3.3 23:22:15 10° NNW 23:27:30 39° NE 23:32:44 10° ESE
Cosmos 1076 Rocket 3.9 23:24:18 14° SSW 23:27:52 61° WNW 23:32:08 10° N
NOSS 3-3 (A) 4.5 23:23:31 10° WSW 23:29:33 67° NW 23:36:29 10° NE
NOSS 3-3 (C) 4.4 23:23:37 10° WSW 23:29:39 67° NW 23:36:36 10° NE
Cosmos 1980 3.7 23:24:10 10° SSW 23:29:50 88° WNW 23:35:32 10° NNE
Cosmos 1933 3.7 23:29:17 10° N 23:33:15 54° ENE 23:35:34 23° SE
SL-4 R/B 2.4 23:33:31 18° E 23:33:56 19° ENE 23:35:31 10° NNE
EO 1 Delta rocket 4.2 23:29:28 10° N 23:34:30 85° E 23:39:14 17° S
Cosmos 2151 3.0 23:32:17 22° S 23:34:58 75° E 23:39:14 10° NNE
COSMOS 2455 3.1 23:30:14 10° NW 23:36:17 67° NE 23:41:47 13° SE
Helios 1A 4.0 23:34:08 16° SE 23:36:57 37° ENE 23:40:48 10° N
COSMOS 2428 3.9 23:32:19 10° WSW 23:37:42 43° NW 23:43:08 10° NNE
Thor Agena Rocket 3.5 23:33:02 10° NNE 23:38:12 88° ESE 23:42:04 18° SSW
Genesis I 3.1 23:35:47 14° SW 23:39:07 76° SE 23:43:01 10° NE
Cosmos 2154 Rocket 4.3 23:34:33 12° SSW 23:40:15 65° WNW 23:46:28 10° N
Cosmos 2341 Rocket 4.0 23:40:08 19° S 23:44:50 84° E 23:51:05 10° NNE
ATLAS 2AS CENTAUR R/B 3.3 23:38:13 10° NW 23:45:25 48° WSW 23:50:04 20° S
Cosmos 2237 Rocket 2.4 23:42:11 10° SW 23:47:53 73° NW 23:53:38 10° NNE
Spot 4 4.3 23:45:58 20° SSW 23:49:01 50° W 23:53:42 10° NNW
Cosmos 2219 Rocket 3.8 23:44:04 10° WSW 23:49:07 34° NW 23:54:16 10° NNE
Cosmos 1151 Rocket 3.0 23:45:45 10° N 23:50:08 85° E 23:52:34 25° SSE
Cosmos 1782 3.8 23:47:01 10° N 23:50:44 37° ENE 23:53:04 19° SE
USA 215 3.3 23:45:31 10° ENE 23:52:07 87° NNW 23:58:42 10° WSW
Cosmos 158 Rocket 4.3 23:49:18 10° SW 23:54:04 61° WNW 23:58:59 10° NNE
Cosmos 1408 Rocket 4.0 23:52:07 24° SSE 23:54:26 48° E 23:58:42 10° NNE
